| time (UTC) | temp C | wind direction | speed KPH | gust KPH | rain 1hr cm | rain 24hr cm | rain mn cm | humidity % | barometer mb |
| 20260505023031 | 22 | 291 | 1.6 | 1.6 | 0.00 | 0.00 | 0.00 | 56 | 1009.3 |
| 20260505021522 | 23 | 302 | 4.8 | 4.8 | 0.00 | 0.00 | 0.00 | 51 | 1009.3 |
| 20260505020039 | 23 | 211 | 8.0 | 8.0 | 0.00 | 0.00 | 0.00 | 50 | 1009.3 |
| 20260505014530 | 24 | 289 | 3.2 | 3.2 | 0.00 | 0.00 | 0.00 | 50 | 1009.1 |
| 20260505013023 | 25 | 287 | 4.8 | 4.8 | 0.00 | 0.00 | 0.00 | 48 | 1008.9 |
| 20260505011554 | 27 | 281 | 4.8 | 4.8 | 0.00 | 0.00 | 0.00 | 45 | 1008.7 |
| 20260505010023 | 27 | 266 | 8.0 | 8.0 | 0.00 | 0.00 | 0.00 | 41 | 1008.8 |
| 20260505004537 | 27 | 173 | 1.6 | 1.6 | 0.00 | 0.00 | 0.00 | 41 | 1008.7 |
| 20260505003028 | 27 | 103 | 0.0 | 0.0 | 0.00 | 0.00 | 0.00 | 43 | 1008.7 |
| 20260505001522 | 27 | 265 | 6.4 | 6.4 | 0.00 | 0.00 | 0.00 | 42 | 1008.7 |
| 20260505000035 | 27 | 194 | 4.8 | 4.8 | 0.00 | 0.00 | 0.00 | 42 | 1008.7 |
| 20260504234528 | 27 | 202 | 3.2 | 3.2 | 0.00 | 0.00 | 0.00 | 41 | 1008.8 |
| 20260504233023 | 27 | 157 | 3.2 | 3.2 | 0.00 | 0.00 | 0.00 | 43 | 1008.8 |
| 20260504231557 | 27 | 194 | 4.8 | 4.8 | 0.00 | 0.00 | 0.00 | 41 | 1009.0 |
| 20260504230030 | 27 | 201 | 0.0 | 0.0 | 0.00 | 0.00 | 0.00 | 44 | 1009.2 |
| 20260504224524 | 27 | 165 | 3.2 | 3.2 | 0.00 | 0.00 | 0.00 | 42 | 1009.3 |
| 20260504223038 | 27 | 137 | 4.8 | 4.8 | 0.00 | 0.00 | 0.00 | 44 | 1009.4 |
| 20260504221547 | 27 | 303 | 3.2 | 3.2 | 0.00 | 0.00 | 0.00 | 45 | 1009.4 |
| 20260504220036 | 27 | 185 | 4.8 | 4.8 | 0.00 | 0.00 | 0.00 | 44 | 1009.7 |
| 20260504214551 | 27 | 220 | 0.0 | 0.0 | 0.00 | 0.00 | 0.00 | 42 | 1009.8 |
| 20260504213021 | 26 | 231 | 4.8 | 4.8 | 0.00 | 0.00 | 0.00 | 45 | 1009.8 |
| 20260504211535 | 26 | 151 | 1.6 | 1.6 | 0.00 | 0.00 | 0.00 | 44 | 1009.8 |
| 20260504210046 | 26 | 284 | 0.0 | 0.0 | 0.00 | 0.00 | 0.00 | 44 | 1009.9 |
| 20260504204535 | 26 | 262 | 6.4 | 6.4 | 0.00 | 0.00 | 0.00 | 46 | 1009.8 |
| 20260504203032 | 26 | 141 | 8.0 | 8.0 | 0.00 | 0.00 | 0.00 | 50 | 1009.9 |
| 20260504201523 | 25 | 240 | 11.3 | 11.3 | 0.00 | 0.00 | 0.00 | 49 | 1009.9 |
| 20260504200100 | 25 | 160 | 1.6 | 1.6 | 0.00 | 0.00 | 0.00 | 47 | 1010.0 |
| 20260504194529 | 25 | 125 | 0.0 | 0.0 | 0.00 | 0.00 | 0.00 | 52 | 1010.1 |
| 20260504193039 | 24 | 119 | 4.8 | 4.8 | 0.00 | 0.00 | 0.00 | 52 | 1010.1 |
| 20260504191533 | 24 | 58 | 8.0 | 8.0 | 0.00 | 0.00 | 0.00 | 54 | 1010.2 |
| 20260504190044 | 24 | 63 | 4.8 | 4.8 | 0.00 | 0.00 | 0.00 | 55 | 1010.3 |
| 20260504184537 | 24 | 112 | 0.0 | 0.0 | 0.00 | 0.00 | 0.00 | 51 | 1010.4 |
| 20260504183028 | 24 | 115 | 1.6 | 1.6 | 0.00 | 0.00 | 0.00 | 53 | 1010.4 |
| 20260504181521 | 23 | 150 | 3.2 | 3.2 | 0.00 | 0.00 | 0.00 | 55 | 1010.5 |
| 20260504180030 | 23 | 344 | 4.8 | 4.8 | 0.00 | 0.00 | 0.00 | 53 | 1010.5 |
| 20260504174521 | 22 | 166 | 3.2 | 3.2 | 0.00 | 0.00 | 0.00 | 57 | 1010.4 |
| 20260504173036 | 22 | 100 | 0.0 | 0.0 | 0.00 | 0.00 | 0.00 | 58 | 1010.3 |
| 20260504171525 | 22 | 202 | 3.2 | 3.2 | 0.00 | 0.00 | 0.00 | 57 | 1010.3 |
| 20260504081519 | 9 | 336 | 0.0 | 0.0 | 0.00 | 0.00 | 0.00 | 88 | 1009.3 |
| 20260504050024 | 13 | 336 | 0.0 | 0.0 | 0.00 | 0.00 | 0.00 | 76 | 1009.4 |
| 20260504044535 | 14 | 336 | 0.0 | 0.0 | 0.00 | 0.00 | 0.00 | 74 | 1009.4 |
| 20260504043028 | 15 | 336 | 0.0 | 0.0 | 0.00 | 0.00 | 0.00 | 72 | 1009.3 |
| 20260504041522 | 16 | 336 | 0.0 | 0.0 | 0.00 | 0.00 | 0.00 | 69 | 1009.3 |
| 20260504040031 | 17 | 336 | 0.0 | 0.0 | 0.00 | 0.00 | 0.00 | 65 | 1009.3 |
| 20260504034529 | 18 | 336 | 0.0 | 0.0 | 0.00 | 0.00 | 0.00 | 62 | 1009.2 |
| 20260504033040 | 20 | 336 | 0.0 | 0.0 | 0.00 | 0.00 | 0.00 | 56 | 1009.1 |
| 20260504031535 | 21 | 5 | 0.0 | 0.0 | 0.00 | 0.00 | 0.00 | 56 | 1008.9 |
| 20260504030025 | 22 | 288 | 1.6 | 1.6 | 0.00 | 0.00 | 0.00 | 53 | 1009.2 |
| 20260504024556 | 23 | 286 | 0.0 | 0.0 | 0.00 | 0.00 | 0.00 | 47 | 1009.2 |